Vertical_Velocity
-4 -4 6 -7 -4 -1 -2 -4 -2 2 -7 -5 -3 6 -4 4 3 -3 -1 -3 -4 -4 -2 1 2 0 -1 -1 0 2 2 4 1 -0 3 1 4 1 -1 -3 -2 1 2 -0
-2 3 -2 -5 -3 -1 -0 -3 5 5 -5 -6 -1 8 -4 1 -4 1 -1 -3 -2 -2 -6 -6 -4 -2 -0 -0 -1 -2 -0 2 3 1 -1 -1 1 1 3 4 4 5 2 -2
-5 4 1 -1 -2 -2 2 -2 -1 -2 -4 -6 -4 7 -1 -2 1 1 -2 -3 -3 -1 -1 -5 -6 -7 -5 -6 -4 1 2 1 0 2 2 4 3 0 -2 -1 0 2 3 4
-10 11 0 -1 3 -4 4 -8 -1 -1 -1 -3 0 -13 16 -1 2 3 0 -1 -2 -2 -4 -3 -2 -3 -0 -2 -1 -1 -0 1 -3 -1 2 2 1 -1 -1 1 4 2 -0 0
5 2 1 -0 -2 -2 -0 -1 -3 -3 -5 -7 17 -31 14 3 5 2 -0 1 1 2 -3 -2 -3 -4 -4 -4 -2 -5 -8 -8 -5 -4 -6 -3 -2 -1 -0 -0 -1 1 3 2
-2 1 1 -1 -0 -2 0 -1 -3 -4 -6 -14 13 -9 11 2 1 -1 -3 -4 -4 -4 -4 -2 -3 -3 -0 -1 -3 -4 -4 -2 -4 -3 1 0 -7 1 1 2 0 0 -0 0
-2 0 -0 0 2 -2 -2 1 -6 -10 -6 -9 -4 -12 18 -2 -2 0 -0 -1 -2 -3 -2 -1 -0 1 1 -1 -1 -2 -5 -3 -2 -2 -0 -3 -1 -2 -1 1 -0 -2 -0 1
-2 0 -0 6 4 -2 0 -1 3 -17 -7 -5 -4 -9 8 6 5 4 4 -2 -4 -3 -4 -7 -2 -0 -3 -4 -2 -2 -2 2 -2 -4 -4 -2 -2 2 -1 1 2 1 5 3
-3 -3 0 -2 -0 -0 10 -4 2 -4 -4 -12 -3 -3 0 8 4 3 -0 2 -0 -0 -2 1 -2 -4 -4 -5 -7 -3 1 -1 -3 -3 -3 -2 -1 -3 -3 3 -0 2 2 4
-4 -8 1 -0 -4 3 -4 3 -6 -2 -16 -11 -5 -20 -5 2 -3 -8 -1 8 12 3 0 -4 -4 -1 -1 2 1 -3 -3 -1 -1 -3 -2 0 -3 -2 -3 -5 1 -2 -2 1
1 -5 1 -6 3 6 3 0 0 10 -3 -5 -13 -9 3 1 -3 -1 -6 -9 -3 4 3 -1 -1 -0 -1 -1 -2 -0 -1 -0 -3 -0 -0 -2 2 1 2 1 -0 -3 -6 -3
5 -11 -6 1 2 -13 9 1 3 -3 3 -2 6 -41 -6 4 0 -1 -4 -5 -6 -5 3 6 4 3 3 1 3 4 2 1 -0 -2 -2 -2 -2 -4 -6 -7 -3 -2 1 -3
16 -16 -8 -4 -0 2 -8 10 1 3 0 -7 -11 -8 8 2 5 0 0 -2 -1 -3 -3 -1 1 3 -2 -0 -0 -2 -4 -5 -5 -5 -6 -4 -5 -3 -1 -2 -2 -4 -2 -1
6 -3 3 -8 5 2 -14 -3 -0 -5 -10 15 -9 -8 4 13 5 -1 -1 1 -2 -4 -3 3 3 3 1 -2 -4 -5 -5 -7 -5 -4 -4 -4 -4 -4 -3 -2 -2 -1 -2 0
-2 -7 1 1 4 -5 -5 -3 3 2 6 -10 16 -22 33 7 -1 -4 -3 3 -2 4 5 -1 2 -2 -5 -3 -6 -4 -4 -3 -4 -4 -4 -4 -3 -3 -3 -3 -3 -3 -4 -4
3 -14 -2 -7 3 -1 -12 -7 2 1 2 -3 14 -38 25 18 6 -1 -1 -8 -1 3 1 2 3 -3 -1 3 6 -1 -2 -4 -2 -2 -2 -2 -2 -4 -4 -5 -3 -3 -2 -3
-2 5 3 -13 4 -1 -42 20 1 -3 5 15 -6 7 6 2 -8 0 6 -6 -2 -3 1 1 5 5 3 2 0 1 -1 -2 -2 -1 -2 -1 -2 -0 -1 -1 -1 -2 -1 -1
-8 0 10 -3 -3 -31 10 0 1 5 11 13 -8 8 -3 -4 2 3 3 6 2 0 4 1 1 1 -1 -0 -3 -6 -3 -2 -3 -1 -0 -1 -2 -2 -2 -1 -3 -4 -5 -4
1 9 9 -7 1 -6 -28 3 2 10 -13 22 3 3 -2 -2 -5 5 8 -6 3 -1 -2 -1 -4 -4 -1 0 -2 -1 -1 -2 -1 -1 -0 -1 -3 -4 -3 -3 -2 -4 -4 -1
5 5 10 -6 -2 -19 -0 3 12 8 -50 29 4 4 -4 -5 -10 3 -9 -1 1 -3 -2 1 -2 -2 -4 -3 -2 -2 -0 0 1 -0 -1 -1 -1 -1 -1 -2 -3 -1 -4 -2
5 0 -5 5 -4 -31 18 2 1 -11 6 -5 -4 0 -3 -11 -5 -5 0 5 -2 -2 -3 -0 -3 -2 -2 -5 -2 -2 -0 3 2 -0 -1 -1 -2 -2 -3 -3 -4 -6 -3 -4
8 2 -3 1 -9 -27 19 -4 3 19 -3 -3 -4 1 -5 -10 -6 -2 0 1 -2 -5 -8 -3 -3 -2 -1 -1 -0 0 0 -1 1 0 1 0 0 -1 -1 -2 -3 -5 -6 -5
-21 2 1 -12 3 2 1 -4 0 4 5 -1 -11 -1 -6 -5 -2 -1 -2 2 6 5 -1 -2 -2 -0 -1 -1 0 0 -0 0 0 -0 0 -0 -0 1 0 1 -2 -3 -8 -8
-11 -1 -15 15 11 16 6 5 -8 -8 -6 -2 -2 -3 -1 -5 -5 -5 -1 -0 -1 5 -1 1 -0 1 -1 -1 1 -1 -2 -1 -0 -1 -1 -1 0 -1 -2 -2 -4 -3 -5 -4
3 -7 12 5 8 22 2 -3 -3 -3 -10 -11 -1 -6 -8 -4 -9 -2 -6 0 0 -4 -3 -2 1 2 -0 0 1 -0 1 0 -1 1 -1 -2 -0 -1 -1 -1 -2 -4 -3 -7
14 3 5 7 11 8 -7 -12 3 -0 3 2 -4 -10 -8 -6 -9 -0 -5 -0 -2 -1 -0 1 0 1 1 1 -1 -2 3 2 1 1 -1 -3 -3 -3 -3 -1 10 -11 -9 -4
Height
5812 5812 5815 5813 5811 5811 5811 5810 5810 5811 5810 5807 5809 5806 5806 5804 5803 5804 5804 5803 5802 5801 5800 5799 5798 5796 5795 5795 5794 5792 5790 5789 5788 5787 5786 5784 5783 5782 5781 5779 5778 5776 5775 5774
5805 5804 5807 5804 5803 5803 5803 5802 5802 5800 5799 5797 5798 5798 5797 5797 5795 5795 5795 5795 5794 5793 5794 5793 5792 5790 5788 5786 5785 5783 5782 5781 5780 5778 5777 5775 5773 5772 5770 5769 5768 5766 5765 5763
5794 5795 5796 5796 5795 5794 5793 5794 5792 5792 5791 5788 5788 5788 5789 5789 5788 5787 5786 5785 5783 5783 5782 5781 5781 5780 5779 5779 5777 5775 5773 5770 5768 5767 5765 5763 5762 5760 5759 5757 5756 5754 5752 5750
5784 5787 5784 5785 5787 5786 5786 5784 5784 5783 5781 5781 5780 5775 5779 5780 5778 5778 5778 5776 5775 5774 5772 5771 5769 5768 5768 5767 5765 5763 5761 5759 5758 5755 5752 5750 5749 5747 5745 5744 5741 5740 5738 5736
5776 5774 5776 5776 5776 5776 5777 5775 5774 5772 5771 5770 5772 5770 5765 5764 5764 5766 5766 5765 5765 5764 5763 5761 5759 5757 5755 5753 5751 5749 5747 5745 5743 5741 5739 5737 5734 5733 5732 5730 5727 5725 5722 5721
5765 5765 5767 5768 5767 5767 5767 5766 5764 5762 5762 5759 5763 5760 5755 5754 5754 5753 5751 5750 5748 5747 5746 5744 5741 5740 5739 5737 5735 5733 5732 5730 5729 5727 5725 5725 5722 5718 5715 5713 5711 5709 5705 5703
5755 5756 5756 5757 5758 5757 5756 5755 5753 5752 5753 5752 5750 5748 5748 5745 5744 5742 5742 5739 5737 5736 5734 5733 5730 5728 5727 5725 5722 5719 5717 5715 5713 5711 5710 5708 5706 5704 5701 5697 5694 5691 5689 5686
5745 5747 5746 5747 5747 5746 5745 5744 5744 5742 5738 5739 5738 5734 5735 5732 5731 5731 5730 5728 5727 5723 5720 5719 5716 5714 5711 5708 5707 5704 5702 5701 5697 5694 5692 5690 5688 5686 5683 5680 5678 5675 5672 5668
5733 5735 5736 5736 5736 5735 5734 5734 5735 5731 5730 5726 5725 5725 5725 5721 5721 5720 5718 5716 5714 5711 5709 5706 5703 5699 5695 5692 5689 5687 5684 5681 5678 5676 5674 5671 5669 5665 5663 5660 5657 5655 5652 5649
5720 5721 5723 5724 5724 5723 5724 5723 5721 5720 5716 5712 5713 5715 5712 5713 5711 5711 5710 5707 5701 5696 5693 5690 5687 5682 5678 5674 5671 5669 5665 5662 5660 5657 5655 5652 5649 5647 5643 5640 5637 5634 5631 5628
5707 5707 5710 5710 5711 5713 5711 5709 5709 5707 5703 5700 5700 5701 5699 5699 5698 5695 5692 5691 5689 5685 5679 5676 5671 5666 5662 5658 5654 5651 5648 5645 5641 5637 5634 5631 5628 5625 5621 5618 5616 5614 5610 5605
5695 5693 5695 5697 5696 5697 5698 5697 5696 5691 5692 5687 5683 5691 5685 5684 5681 5676 5676 5675 5672 5668 5663 5659 5655 5651 5646 5641 5637 5633 5629 5626 5622 5617 5613 5610 5606 5602 5598 5594 5591 5588 5585 5581
5682 5679 5681 5683 5683 5685 5686 5685 5682 5679 5676 5670 5670 5674 5673 5669 5662 5661 5659 5656 5652 5649 5646 5643 5638 5633 5629 5624 5620 5614 5610 5606 5601 5595 5592 5588 5584 5579 5574 5570 5565 5561 5557 5554
5666 5666 5666 5670 5670 5669 5669 5671 5668 5663 5656 5659 5657 5659 5658 5653 5648 5644 5641 5636 5634 5631 5628 5623 5620 5614 5609 5605 5600 5595 5589 5584 5579 5574 5569 5564 5559 5554 5549 5543 5539 5534 5529 5525
5649 5650 5650 5650 5651 5650 5653 5653 5649 5644 5645 5638 5646 5642 5645 5637 5633 5627 5624 5621 5618 5612 5608 5606 5601 5596 5592 5587 5582 5575 5569 5564 5558 5552 5546 5540 5534 5528 5522 5517 5512 5506 5501 5497
5637 5634 5633 5633 5634 5632 5634 5639 5630 5631 5630 5625 5625 5624 5628 5622 5614 5609 5605 5602 5600 5597 5593 5589 5585 5579 5574 5568 5562 5554 5548 5541 5534 5528 5521 5515 5508 5502 5497 5492 5487 5482 5477 5473
5622 5621 5618 5615 5617 5614 5613 5626 5620 5616 5616 5610 5602 5608 5604 5600 5596 5593 5589 5587 5583 5579 5575 5572 5567 5561 5554 5546 5538 5531 5524 5517 5510 5503 5496 5490 5485 5481 5477 5473 5468 5463 5458 5454
5608 5607 5602 5598 5597 5590 5604 5607 5605 5599 5598 5593 5589 5585 5583 5583 5578 5577 5575 5569 5565 5562 5559 5553 5546 5539 5533 5525 5517 5509 5502 5494 5487 5480 5474 5469 5466 5462 5458 5453 5448 5444 5439 5434
5591 5590 5585 5579 5578 5577 5587 5589 5586 5579 5581 5575 5570 5567 5564 5561 5560 5566 5556 5548 5547 5541 5536 5531 5525 5519 5512 5504 5496 5487 5480 5473 5467 5462 5457 5453 5450 5446 5441 5436 5430 5424 5420 5415
5574 5572 5569 5563 5558 5556 5572 5574 5563 5558 5553 5562 5556 5548 5543 5543 5540 5547 5533 5532 5527 5521 5516 5510 5503 5497 5490 5482 5475 5468 5462 5457 5452 5447 5443 5438 5434 5430 5425 5420 5414 5408 5402 5397
5557 5552 5550 5548 5538 5538 5552 5547 5546 5538 5543 5539 5534 5532 5528 5526 5526 5522 5518 5512 5506 5500 5495 5488 5481 5474 5468 5461 5456 5452 5448 5443 5438 5433 5428 5423 5418 5414 5408 5404 5396 5390 5385 5378
5539 5537 5537 5532 5526 5521 5533 5524 5523 5524 5518 5517 5516 5514 5507 5507 5507 5502 5498 5494 5485 5479 5474 5467 5460 5454 5449 5444 5440 5437 5434 5429 5425 5420 5415 5409 5403 5397 5391 5386 5379 5372 5365 5359
5519 5522 5520 5519 5515 5509 5503 5504 5504 5504 5501 5498 5495 5494 5488 5486 5485 5482 5478 5472 5465 5457 5450 5446 5441 5437 5432 5429 5426 5422 5419 5416 5411 5406 5401 5395 5389 5383 5376 5370 5363 5357 5348 5343
5504 5508 5505 5502 5503 5495 5484 5482 5484 5484 5483 5481 5477 5473 5469 5465 5464 5462 5456 5452 5446 5439 5432 5428 5424 5421 5417 5414 5411 5407 5404 5400 5395 5391 5386 5380 5375 5368 5362 5355 5347 5341 5333 5329
5498 5498 5495 5484 5484 5475 5468 5465 5467 5464 5462 5460 5456 5451 5448 5445 5444 5440 5435 5431 5426 5422 5417 5413 5410 5406 5404 5400 5396 5392 5388 5384 5380 5376 5371 5365 5359 5353 5347 5340 5333 5327 5320 5315
5490 5486 5472 5464 5464 5453 5450 5455 5453 5447 5443 5438 5433 5432 5430 5425 5422 5420 5417 5414 5410 5407 5403 5400 5396 5392 5389 5385 5381 5377 5373 5369 5364 5359 5353 5348 5343 5337 5331 5327 5323 5312 5307 5303